sat.trackr.live / text

‹ back to catalog

STARK

NORAD 65299 · 2025-185C

PAYLOAD ACTIVE UNKNOWN

§ Identity

Operator
Country
RWA
Launch date
2025-08-23
Launch site
RLLB
Launch vehicle
Mass (kg)
RCS (m²)

External: N2YO · Heavens-Above · Gunter

§ Orbital elements

Epoch: 2026-05-25T03:35:32.778816Z

Period
97.26 min
Inclination
97.9600°
Eccentricity
0.0014753
Mean motion
14.80626166 rev/d
Perigee alt
617.0 km
Apogee alt
637.7 km
Semi-major
7,005.5 km
B*
2.2180e-4
RAAN
228.9077°
Arg perigee
155.1642°
Mean anomaly
205.0283°
Rev number
4,044

§ Raw data

STARK1 65299U 25185C   26145.14968494  .00001653  00000+0  22180-3 0  99952 65299  97.9600 228.9077 0014753 155.1642 205.0283 14.80626166 40445

JSON: /api/v1/satellites/65299 · /tle

For live sub-satellite position, see the globe view (requires WebGL).

§ Visibility from observer

Set your observer location to see the next 7 days of passes ≥ 10°. The values pass through the URL so the page stays shareable.

No JS? Fill the form by hand. The geolocation button needs JavaScript.